GOES 10 [-]

Last updated on July 6, 2021, 3:23 p.m. UTC

1 24786U 97019A   21186.49039772 -.00000173  00000-0  00000-0 0  9994
2 24786  11.0296  32.7917 0024544 191.9294 170.5405  0.99124036 88159
UTC
Height (km)
Latitude
Longitude
Inclination
Orbital Period
UTC large
Height (km)
Speed (km/s)
/
Latitude / Longitude
Inclination (degrees)
Orbital Period (minutes)
Azimuth
Elevation
Range (km)
Doppler Factor
iOS Compass Heading
iOS Angle